Weather History for Chino, CA

Change the Weather History Date:

Monday, August 19, 2013

  Actual Average Record
Temperature  
Mean Temperature 78 °F -  
Max Temperature 91 °F 90 °F 100 °F (2007)
Min Temperature 64 °F 58 °F 55 °F (1998)
Cooling Degree Days 12    
Growing Degree Days 28 (Base 50)    
Moisture  
Dew Point 59 °F    
Average Humidity 61    
Maximum Humidity 81    
Minimum Humidity 29    
Precipitation  
Precipitation 0.00 in - - ()
Sea Level Pressure  
Sea Level Pressure 29.89 in    
Wind  
Wind Speed 6 mph (West)    
Max Wind Speed 17 mph    
Max Gust Speed -    
Visibility 9 miles    
Events      
Averages and records for this station are not official NWS values.
T = Trace of Precipitation, MM = Missing Value Source: NWS Daily Summary

Daily Weather History Graph

Daily Weather History Graph

Search for Another Location

Airport:

Trip Planner

Search our weather history database for the weather conditions in past years. The results will help you decide how hot, cold, wet, or windy it might be!

Date:

Astronomy

Aug. 19, 2013 Rise Set
Actual Time 6:15 AM PDT 7:32 PM PDT
Civil Twilight 5:49 AM PDT 7:58 PM PDT
Nautical Twilight 5:17 AM PDT 8:29 PM PDT
Astronomical Twilight 4:45 AM PDT 9:01 PM PDT
Moon 6:26 PM PDT (8/19) 4:41 AM PDT (8/19)
Length of Visible Light 14h 09m
Length of Day
13h 17m
Waxing Gibbous, 98% of the Moon is Illuminated
Aug 19
Waxing Gibbous
Aug 20
Full
Aug 28
Last Quarter
Sep 5
New
Sep 12
First Quarter

Hourly Weather History & Observations

Time (PDT) Temp. Heat Index Dew Point Humidity Pressure Visibility Wind Dir Wind Speed Gust Speed Precip Events Conditions
12:53 AM 66.0 °F - 57.9 °F 75% 29.90 in 9.0 mi West 5.8 mph - N/A   Clear
1:53 AM 64.9 °F - 57.9 °F 78% 29.89 in 8.0 mi West 5.8 mph - N/A   Clear
2:53 AM 66.0 °F - 59.0 °F 78% 29.88 in 8.0 mi West 4.6 mph - N/A   Clear
3:53 AM 64.9 °F - 57.9 °F 78% 29.88 in 7.0 mi WSW 3.5 mph - N/A   Clear
4:53 AM 64.9 °F - 59.0 °F 81% 29.88 in 7.0 mi Calm Calm - N/A   Clear
5:53 AM 64.9 °F - 59.0 °F 81% 29.91 in 6.0 mi SSW 4.6 mph - N/A   Haze
6:53 AM 66.0 °F - 59.0 °F 78% 29.91 in 10.0 mi WSW 3.5 mph - N/A   Mostly Cloudy
7:53 AM 68.0 °F - 59.0 °F 73% 29.92 in 10.0 mi WNW 5.8 mph - N/A   Mostly Cloudy
8:53 AM 73.0 °F - 60.1 °F 64% 29.93 in 10.0 mi West 6.9 mph - N/A   Mostly Cloudy
9:53 AM 73.9 °F - 61.0 °F 64% 29.93 in 10.0 mi NW 8.1 mph - N/A   Mostly Cloudy
10:53 AM 80.1 °F 80.9 °F 60.1 °F 50% 29.93 in 10.0 mi WNW 10.4 mph - N/A   Scattered Clouds
11:53 AM 82.9 °F 83.2 °F 60.1 °F 46% 29.92 in 10.0 mi West 8.1 mph - N/A   Mostly Cloudy
12:53 PM 84.0 °F 83.8 °F 59.0 °F 43% 29.91 in 10.0 mi West 9.2 mph - N/A   Mostly Cloudy
1:53 PM 89.1 °F 88.0 °F 57.9 °F 35% 29.89 in 10.0 mi West 9.2 mph - N/A   Mostly Cloudy
2:53 PM 90.0 °F 88.8 °F 57.9 °F 34% 29.87 in 10.0 mi West 10.4 mph - N/A   Scattered Clouds
3:53 PM 91.0 °F 89.7 °F 57.0 °F 32% 29.85 in 10.0 mi West 8.1 mph - N/A   Scattered Clouds
4:53 PM 91.0 °F 88.9 °F 55.0 °F 29% 29.83 in 10.0 mi West 11.5 mph - N/A   Scattered Clouds
5:53 PM 84.9 °F 83.9 °F 57.0 °F 38% 29.83 in 10.0 mi West 17.3 mph - N/A   Scattered Clouds
6:53 PM 80.1 °F 80.6 °F 57.9 °F 47% 29.84 in 10.0 mi West 12.7 mph - N/A   Scattered Clouds
7:53 PM 73.0 °F - 59.0 °F 61% 29.86 in 10.0 mi West 12.7 mph - N/A   Partly Cloudy
8:53 PM 70.0 °F - 59.0 °F 68% 29.88 in 9.0 mi West 9.2 mph - N/A   Clear
9:53 PM 68.0 °F - 59.0 °F 73% 29.91 in 9.0 mi West 3.5 mph - N/A   Clear
10:53 PM 66.9 °F - 59.0 °F 76% 29.91 in 9.0 mi WSW 3.5 mph - N/A   Clear
11:53 PM 66.9 °F - 59.0 °F 76% 29.90 in 9.0 mi Calm Calm - N/A   Clear